This is the latest recevied weather packets stored in our database for station/object WS4FSC-7. If no packets are shown the sender has not sent any weather packets the latest 10 day(s).
| Time | Temp. | Humidity | Pressure | Rain* | Wind** | Luminosity | Snow |
|---|---|---|---|---|---|---|---|
| 1787426236 | 33.33° C | 64% | 1015 hPa | - | - | 745 W/m² | - |
| 1787426057 | 33.33° C | 62% | 1015 hPa | - | - | 753 W/m² | - |
| 1787425876 | 32.78° C | 65% | 1015 hPa | - | - | 763 W/m² | - |
| 1787425696 | 33.33° C | 64% | 1015 hPa | - | - | 771 W/m² | - |
| 1787425516 | 33.33° C | 62% | 1015 hPa | - | - | 771 W/m² | - |
| 1787425336 | 33.33° C | 63% | 1015 hPa | - | - | 785 W/m² | - |
| 1787424976 | 33.33° C | 64% | 1015 hPa | - | - | 800 W/m² | - |
| 1787424616 | 33.33° C | 65% | 1015 hPa | - | - | 806 W/m² | - |
| 1787424436 | 33.89° C | 63% | 1015 hPa | - | - | 814 W/m² | - |
| 1787424256 | 33.89° C | 63% | 1015 hPa | - | - | 830 W/m² | - |
| 1787423895 | 33.89° C | 63% | 1016 hPa | - | - | 860 W/m² | - |
| 1787423536 | 33.89° C | 64% | 1016 hPa | - | - | 856 W/m² | - |
| 1787423356 | 33.33° C | 65% | 1016 hPa | - | - | 875 W/m² | - |
| 1787422996 | 33.33° C | 66% | 1016 hPa | - | - | 910 W/m² | - |
| 1787422276 | 33.33° C | 65% | 1016 hPa | - | - | 951 W/m² | - |
| 1787422097 | 32.78° C | 65% | 1015 hPa | - | - | 917 W/m² | - |
| 1787421916 | 33.33° C | 66% | 1015 hPa | - | - | 907 W/m² | - |
| 1787421376 | 32.78° C | 66% | 1016 hPa | - | - | 923 W/m² | - |
| 1787421195 | 32.78° C | 66% | 1016 hPa | - | - | 922 W/m² | - |
| 1787420836 | 32.22° C | 68% | 1015 hPa | - | - | 935 W/m² | - |
| 1787420477 | 32.78° C | 67% | 1015 hPa | - | - | 964 W/m² | - |
| 1787420295 | 33.33° C | 67% | 1015 hPa | - | - | 925 W/m² | - |
| 1787420116 | 33.33° C | 66% | 1015 hPa | - | - | 929 W/m² | - |
| 1787419936 | 33.33° C | 64% | 1015 hPa | - | - | 904 W/m² | - |
| 1787419756 | 33.33° C | 66% | 1015 hPa | - | - | 904 W/m² | - |
* Rain since midnight (hover to see other rain measurements)
** Current wind speed in m/s (hover to see current wind gust speed)